Weather in Verkhnyaya Mara

Russia / Karachay-Cherkess Republic     43°46′15″N   42°08′20″E
temp.,
°C
wind,
m/s
gust,
m/s
humid.,
%
clouds,
%
prec.,
mm/h
press.,
hPa
HPBL,
m
24 may, tue
tue2400:00+2ssw11100100 5.4 1009225
03:00+2nw1199100 7.9 1009225
06:00+3w1292100 0.5 1009392
09:00+3n1190100 0.6 1009523
12:00+5nne3290100 0.6 1008763
15:00+3nnw22100100 6.3 1011468
18:00+2w1199100 5.1 1014232
21:00+2wnw1199100 6.4 1015204
25 may, wed
wed2500:00+1wnw11100100 5.0 1017129
03:00+1ssw1210093 5.4 1018126
06:000s119638 0.0 101979
09:00+3wnw128959 0.0 1019601
12:00+5n328791 0.8 1018714
15:00+5n228999 1.8 1020488
18:00+4n118945 0.9 1021371
21:00+1e119488 1.1 102311
26 may, thu
thu2600:00+3sw119199 0.0 102225
03:00−1sse228913 0.0 102413
06:00+2sse118399 0.0 102448
09:00+6nnw1170100 0.0 1021807
12:00+9nnw336254 0.1 10201216
15:00+10n447222 0.2 1019985
18:00+8n1183100 0.1 1019427
21:00+6sw119076 0.1 102015
27 may, fri
fri2700:00+3s229235 0.0 102014
03:00+3sse227715 0.0 102114
06:00+5sse226297 0.0 102129
09:00+11nw21424 0.0 1019732
12:00+13n32505 0.0 10181357
15:00+11nne438062 0.1 1019649
18:00+9nne218594 0.0 1019401
21:00+7e119390 0.1 102017
28 may, sat
sat2800:00+6se119221 0.0 101931
03:00+5se22895 0.0 101812
06:00+7sse22755 0.0 101829
09:00+14nw11490 0.0 1015559
12:00+17nnw33500 0.0 10131112
15:00+16n427331 0.1 1014925
18:00+13n218761 0.3 1015372
21:00+9sse11941 0.9 101610